EST,Max TemperatureF,Mean TemperatureF,Min TemperatureF,Max Dew PointF,MeanDew PointF,Min DewpointF,Max Humidity, Mean Humidity, Min Humidity, Max Sea Level PressureIn, Mean Sea Level PressureIn, Min Sea Level PressureIn, Max VisibilityMiles, Mean VisibilityMiles, Min VisibilityMiles, Max Wind SpeedMPH, Mean Wind SpeedMPH, Max Gust SpeedMPH,PrecipitationIn, CloudCover, Events, WindDirDegrees
2013-11-1,61,54,47,55,46,42,93,75,57,29.76,29.63,29.41,10,10,10,29,13,35,T,7,,251
2013-11-2,55,50,44,43,40,36,89,70,50,30.10,29.88,29.75,10,10,7,22,11,26,T,7,Rain,282
2013-11-3,53,46,39,40,37,33,93,74,54,30.39,30.28,30.11,10,10,8,10,5,13,0.00,6,,49
2013-11-4,56,48,39,42,35,31,76,63,50,30.44,30.38,30.33,10,10,10,16,9,21,0.00,6,,136
2013-11-5,59,53,47,46,42,39,83,70,57,30.42,30.34,30.22,10,10,10,13,7,16,T,7,Rain,166
2013-11-6,61,53,45,58,48,37,100,76,51,30.21,30.05,29.97,10,8,3,29,14,35,0.30,8,Rain,230
2013-11-7,48,42,35,42,32,25,92,67,42,30.27,30.18,30.06,10,10,7,21,11,25,0.04,5,Rain,293
2013-11-8,49,40,30,33,29,27,92,67,42,30.38,30.30,30.22,10,8,5,17,8,22,0.00,3,,253
2013-11-9,60,50,40,39,33,26,71,55,39,30.24,30.10,30.00,10,10,10,29,16,33,0.00,2,,212
2013-11-10,49,42,34,38,30,27,79,63,46,30.36,30.26,30.09,10,10,10,25,12,32,0.00,1,,272
2013-11-11,51,41,30,41,33,27,86,68,50,30.33,30.22,30.09,10,8,1,22,12,29,0.12,8,Rain-Snow,277
2013-11-12,33,28,23,30,23,17,92,77,61,30.63,30.50,30.28,10,9,1,22,10,30,0.05,5,Snow,342
2013-11-13,39,29,19,22,18,16,91,64,37,30.64,30.55,30.40,10,10,10,16,9,20,0.00,1,,240
2013-11-14,52,41,29,21,19,17,69,48,26,30.37,30.26,30.16,10,10,10,20,13,25,0.00,1,,205
2013-11-15,50,45,40,40,26,19,71,54,36,30.17,30.14,30.10,10,10,10,20,11,26,0.00,7,,197
2013-11-16,60,53,45,54,48,41,89,83,76,30.14,30.04,29.90,10,9,6,20,13,28,T,8,,166
2013-11-17,64,56,48,61,56,40,93,76,59,29.87,29.68,29.48,10,8,2,40,19,53,0.73,7,Rain-Thunderstorm,196
2013-11-18,50,42,34,40,33,28,82,66,50,30.20,29.99,29.79,10,10,10,29,16,36,0.00,2,,278
2013-11-19,43,37,31,28,26,24,85,69,53,30.38,30.32,30.21,10,10,10,15,7,18,0.00,6,,21
2013-11-20,49,38,27,31,27,23,85,68,50,30.38,30.32,30.25,10,10,10,20,10,23,0.00,5,,119
2013-11-21,56,48,40,47,40,29,93,73,53,30.34,30.26,30.20,10,9,5,13,7,17,0.21,8,Rain,162
2013-11-22,52,44,35,52,44,28,100,85,70,30.39,30.24,30.17,10,6,0,22,11,28,0.15,8,Rain,293
2013-11-23,35,28,20,27,20,9,92,71,50,30.57,30.43,30.37,10,9,2,28,12,37,T,5,Snow,315
2013-11-24,27,22,16,11,9,7,73,62,50,30.70,30.62,30.53,10,10,10,14,7,21,0.00,3,,302
2013-11-25,36,28,19,28,15,11,73,56,39,30.54,30.34,30.19,10,10,2,23,10,29,T,6,Snow,196
2013-11-26,36,33,29,30,28,25,92,81,70,30.22,30.07,29.93,10,8,4,17,6,23,T,8,Snow,262
2013-11-27,33,28,23,25,18,13,78,64,50,30.29,30.09,29.91,10,10,7,24,16,31,T,7,Snow,307
2013-11-28,33,27,21,16,14,12,77,59,41,30.46,30.36,30.29,10,10,10,17,8,22,0.00,6,,215
2013-11-29,39,30,20,20,18,15,84,64,44,30.65,30.59,30.47,10,10,7,10,5,13,0.00,2,,121
2013-11-30,48,37,25,28,24,20,81,63,45,30.53,30.36,30.18,10,9,7,14,8,18,0.00,3,,173